Flag for U.S.A. Weather past 2 weeks in Anaheim, California, U.S.A.

Now
61 °F

Sunny.


Feels Like: 61 °F
Forecast: 47 / 63 °F
Wind: 7 mph from Southwest

Location: Fullerton Municipal Airport

Current Time: Mar 2, 2015 at 4:12:12 PM

Latest Report: Mar 2, 2015 at 3:53 PM


Visibility: 10 mi

Pressure: 29.90 "Hg

Humidity: 48%

Dew point: 41 °F

Location of AnaheimLocation

Historic Weather in Anaheim — Graph

°F

Anaheim temperature yesterday

Maximum temperature yesterday: 62 °F (at 2:53 PM)
Minimum temperature yesterday: 51 °F (at 4:53 AM)
Average temperature yesterday: 57 °F

Past Weeks' High & Low Weather Summary

 TemperatureHumidityPressure
High77 °F (Feb 15, 2:53 PM)93% (Feb 23, 3:53 AM)30.23 "Hg (Feb 23, 3:53 AM)
Low45 °F (Feb 24, 5:53 AM)13% (Feb 24, 2:53 PM)29.75 "Hg (Feb 27, 4:53 PM)
Average60 °F67%29.97 "Hg
* Reported Feb 15 2:53 PM — Mar 2 2:53 PM, Anaheim, Weather by CustomWeather, © 2015

Note: Actual official high and low records may vary slightly from our data, if they occured in-between our weather recording intervals... More about our weather records

Advertising

Anaheim weather history for previous 24 hours

 ConditionsComfort  
Time TempWeatherWind HumidityBarometerVisibility
2:53 PM
Mon, Mar 2
61 °FSunny.9 mph48%29.90 "Hg10 mi
1:53 PM61 °FPassing clouds.8 mph50%29.90 "Hg10 mi
12:53 PM59 °FSunny.N/A58%29.91 "Hg10 mi
11:53 AM54 °FSunny.N/A72%29.93 "Hg10 mi
10:53 AM52 °FLight rain. Mostly cloudy.8 mph77%29.92 "Hg9 mi
9:53 AM56 °FLight rain. Partly sunny.No wind67%29.92 "Hg10 mi
8:53 AM55 °FPassing clouds.3 mph69%29.91 "Hg10 mi
7:53 AM52 °FPartly sunny.6 mph77%29.91 "Hg10 mi
6:53 AM49 °FPartly sunny.No wind86%29.90 "Hg10 mi
5:53 AM50 °FOvercast.No wind86%29.89 "Hg10 mi
4:53 AM49 °FPassing clouds.No wind90%29.88 "Hg10 mi
3:53 AM50 °FPassing clouds.No wind86%29.88 "Hg10 mi
2:53 AM51 °FLight rain. Mostly cloudy.7 mph80%29.88 "Hg10 mi
1:58 AM50 °FRain. Fog.5 mph86%29.92 "Hg3 mi
12:53 AM54 °FMostly cloudy.No wind69%29.92 "Hg10 mi
11:53 PM
Sun, Mar 1
54 °FPassing clouds.3 mph67%29.93 "Hg10 mi
10:53 PM55 °FMostly cloudy.5 mph67%29.93 "Hg10 mi
9:53 PM56 °FOvercast.3 mph67%29.94 "Hg10 mi
8:53 PM57 °FOvercast.5 mph64%29.94 "Hg10 mi
7:53 PM58 °FOvercast.6 mph58%29.92 "Hg10 mi
6:53 PM58 °FOvercast.8 mph56%29.91 "Hg10 mi
5:53 PM60 °FMostly cloudy.8 mph56%29.90 "Hg10 mi
4:53 PM61 °FMostly cloudy.8 mph56%29.89 "Hg10 mi
Weather by CustomWeather, © 2015

See weather overviewHow to use our weather pages